DLH477 CYVR-EDDM

Flight info

Callsign DLH477
Flight time N/A
Altitude 37000
Route SEATN DCT PARQE/N0486F360 DCT YQU/N0484F370 J528 YSM DCT 61N110W 65N100W 67N090W 6830N08000W/N0484F390 6930N07000W/M084F390 DCT ADSAM DCT 70N060W 70N050W 6930N04000W 6830N03000W 67N020W 65N010W DCT GUNPA/N0484F390 DCT ATNAK/N0486F410 DCT OMIMA DCT TIVUN DCT DODEN/N0457F330 DCT TABUM DCT BOMBI T104 HAREM/N0419F270 T104 ROKIL ROKIL1B
Aircraft A359/H-SDE2E3GHIJ3J4J5LM1ORWXY/LB1D1

Departure

Time 2026-05-05 21:11
Airport Vancouver International Airport (CYVR)

Arrival

Time N/A
Airport Munich Airport (EDDM)
Time Latitude Longitude Altitude Speed Heading
2026-05-05 20:42 49.19696 -123.17916 22 ft 0 kts 51°
2026-05-05 20:58 49.19696 -123.17917 22 ft 1 kts 51°
2026-05-05 20:58 49.19687 -123.17934 23 ft 2 kts 52°
2026-05-05 20:59 49.19678 -123.17953 23 ft 2 kts 64°
2026-05-05 20:59 49.19673 -123.17974 23 ft 2 kts 74°
2026-05-05 20:59 49.19670 -123.17996 23 ft 2 kts 84°
2026-05-05 20:59 49.19669 -123.18018 23 ft 2 kts 85°
2026-05-05 21:00 49.19667 -123.18037 23 ft 0 kts 83°
2026-05-05 21:00 49.19665 -123.18056 23 ft 2 kts 67°
2026-05-05 21:00 49.19658 -123.18074 23 ft 2 kts 41°
2026-05-05 21:00 49.19646 -123.18086 23 ft 1 kts 20°
2026-05-05 21:01 49.19648 -123.18085 23 ft 2 kts 20°
2026-05-05 21:01 49.19659 -123.18079 23 ft 1 kts 21°
2026-05-05 21:01 49.19680 -123.18082 23 ft 3 kts 333°
2026-05-05 21:01 49.19690 -123.18096 23 ft 1 kts 310°
2026-05-05 21:02 49.19691 -123.18098 23 ft 0 kts 310°
2026-05-05 21:03 49.19701 -123.18117 22 ft 5 kts 310°
2026-05-05 21:04 49.19735 -123.18200 22 ft 12 kts 293°
2026-05-05 21:04 49.19756 -123.18331 21 ft 10 kts 280°
2026-05-05 21:04 49.19770 -123.18452 21 ft 12 kts 279°
2026-05-05 21:04 49.19777 -123.18547 20 ft 5 kts 262°
2026-05-05 21:05 49.19753 -123.18607 20 ft 7 kts 225°
2026-05-05 21:05 49.19708 -123.18665 20 ft 9 kts 208°
2026-05-05 21:05 49.19639 -123.18692 20 ft 11 kts 190°
2026-05-05 21:05 49.19557 -123.18713 20 ft 13 kts 189°
2026-05-05 21:06 49.19456 -123.18738 20 ft 12 kts 189°
2026-05-05 21:06 49.19395 -123.18780 20 ft 8 kts 237°
2026-05-05 21:06 49.19376 -123.18883 20 ft 10 kts 258°
2026-05-05 21:06 49.19359 -123.19015 20 ft 15 kts 259°
2026-05-05 21:07 49.19334 -123.19204 20 ft 20 kts 258°
2026-05-05 21:07 49.19307 -123.19429 20 ft 22 kts 259°
2026-05-05 21:07 49.19278 -123.19666 21 ft 22 kts 260°
2026-05-05 21:07 49.19249 -123.19898 23 ft 22 kts 259°
2026-05-05 21:08 49.19220 -123.20126 25 ft 18 kts 259°
2026-05-05 21:08 49.19196 -123.20317 26 ft 18 kts 259°
2026-05-05 21:08 49.19180 -123.20503 26 ft 17 kts 273°
2026-05-05 21:08 49.19194 -123.20644 24 ft 13 kts 279°
2026-05-05 21:09 49.19200 -123.20770 21 ft 12 kts 258°
2026-05-05 21:09 49.19153 -123.20829 20 ft 10 kts 190°
2026-05-05 21:09 49.19077 -123.20848 20 ft 11 kts 188°
2026-05-05 21:09 49.19014 -123.20795 20 ft 10 kts 111°
2026-05-05 21:10 49.19003 -123.20723 22 ft 4 kts 101°
2026-05-05 21:10 49.18981 -123.20525 26 ft 46 kts 100°
2026-05-05 21:10 49.18883 -123.19671 20 ft 114 kts 100°
2026-05-05 21:10 49.18710 -123.18179 26 ft 170 kts 100°
2026-05-05 21:11 49.18518 -123.16308 545 ft 181 kts 99°
2026-05-05 21:11 49.18344 -123.14501 1422 ft 172 kts 99°
2026-05-05 21:11 49.18167 -123.12749 2082 ft 168 kts 99°
2026-05-05 21:11 49.17984 -123.10934 2420 ft 177 kts 98°
2026-05-05 21:12 49.18137 -123.09094 2724 ft 185 kts 55°
2026-05-05 21:12 49.19188 -123.08000 3105 ft 187 kts 12°
2026-05-05 21:12 49.20485 -123.07574 3425 ft 198 kts 11°
2026-05-05 21:12 49.21860 -123.07094 3737 ft 211 kts 12°
2026-05-05 21:13 49.23337 -123.06522 4042 ft 226 kts 13°
2026-05-05 21:13 49.24916 -123.05874 4345 ft 242 kts 14°
2026-05-05 21:13 49.26595 -123.05140 4708 ft 258 kts 15°
2026-05-05 21:13 49.28328 -123.04365 5204 ft 269 kts 15°
2026-05-05 21:14 49.30136 -123.03537 5892 ft 272 kts 15°
2026-05-05 21:14 49.31943 -123.02705 6609 ft 274 kts 15°
2026-05-05 21:14 49.33783 -123.01859 7284 ft 276 kts 15°
2026-05-05 21:14 49.35617 -123.01015 7955 ft 279 kts 15°
2026-05-05 21:15 49.37454 -123.00164 8639 ft 281 kts 15°
2026-05-05 21:15 49.39343 -122.99288 9330 ft 282 kts 15°
2026-05-05 21:15 49.41222 -122.98418 9994 ft 285 kts 15°
2026-05-05 21:15 49.43148 -122.97523 10493 ft 292 kts 15°
2026-05-05 21:16 49.45133 -122.96601 10789 ft 308 kts 15°
2026-05-05 21:16 49.47248 -122.95618 11070 ft 323 kts 15°
2026-05-05 21:16 49.49427 -122.94604 11349 ft 337 kts 15°
2026-05-05 21:16 49.51698 -122.93543 11829 ft 344 kts 15°
2026-05-05 21:17 49.53978 -122.92477 12428 ft 346 kts 15°
2026-05-05 21:17 49.56283 -122.91399 13078 ft 348 kts 15°
2026-05-05 21:17 49.58585 -122.90321 13680 ft 350 kts 15°
2026-05-05 21:17 49.60939 -122.89217 14276 ft 352 kts 15°
2026-05-05 21:18 49.63263 -122.88128 14844 ft 354 kts 14°
2026-05-05 21:18 49.65622 -122.87020 15409 ft 356 kts 14°
2026-05-05 21:18 49.68023 -122.85894 15941 ft 359 kts 14°
2026-05-05 21:18 49.70427 -122.84765 16490 ft 361 kts 14°
2026-05-05 21:19 49.72841 -122.83630 17017 ft 363 kts 14°
2026-05-05 21:19 49.75275 -122.82483 17562 ft 365 kts 14°
2026-05-05 21:19 49.77683 -122.81348 18060 ft 368 kts 14°
2026-05-05 21:19 49.80142 -122.80187 18579 ft 370 kts 14°
2026-05-05 21:20 49.82602 -122.79026 19107 ft 372 kts 14°
2026-05-05 21:20 49.85081 -122.77855 19604 ft 374 kts 14°
2026-05-05 21:20 49.87555 -122.76684 20120 ft 376 kts 14°
2026-05-05 21:20 49.90049 -122.75501 20602 ft 379 kts 13°
2026-05-05 21:21 49.92564 -122.74307 21070 ft 381 kts 13°
2026-05-05 21:21 49.95124 -122.73093 21549 ft 384 kts 13°
2026-05-05 21:21 49.97648 -122.71892 22012 ft 386 kts 13°
2026-05-05 21:21 50.00224 -122.70667 22450 ft 389 kts 13°
2026-05-05 21:22 50.02816 -122.69432 22905 ft 391 kts 13°
2026-05-05 21:22 50.05414 -122.68192 23348 ft 393 kts 13°
2026-05-05 21:22 50.08030 -122.66945 23757 ft 396 kts 13°
2026-05-05 21:22 50.10654 -122.65691 24162 ft 398 kts 13°
2026-05-05 21:23 50.13294 -122.64433 24566 ft 400 kts 13°
2026-05-05 21:23 50.15957 -122.63163 24925 ft 403 kts 13°
2026-05-05 21:23 50.18664 -122.61867 25283 ft 405 kts 13°
2026-05-05 21:23 50.21360 -122.60576 25635 ft 408 kts 13°
2026-05-05 21:24 50.24036 -122.59290 25977 ft 410 kts 13°
2026-05-05 21:24 50.26758 -122.57980 26297 ft 412 kts 14°
2026-05-05 21:24 50.29498 -122.56660 26605 ft 414 kts 14°
2026-05-05 21:24 50.32259 -122.55327 26913 ft 416 kts 14°
2026-05-05 21:25 50.35043 -122.53982 27210 ft 418 kts 14°
2026-05-05 21:25 50.37817 -122.52638 27522 ft 420 kts 14°
2026-05-05 21:25 50.40583 -122.51298 27816 ft 421 kts 14°
2026-05-05 21:25 50.43390 -122.49934 28086 ft 423 kts 14°
2026-05-05 21:26 50.46190 -122.48575 28345 ft 425 kts 14°
2026-05-05 21:26 50.49033 -122.47192 28603 ft 427 kts 14°
2026-05-05 21:26 50.51885 -122.45804 28860 ft 429 kts 14°
2026-05-05 21:26 50.54735 -122.44414 29118 ft 430 kts 14°
2026-05-05 21:27 50.57574 -122.43024 29360 ft 432 kts 14°
2026-05-05 21:27 50.60422 -122.41631 29587 ft 434 kts 14°
2026-05-05 21:27 50.63308 -122.40218 29816 ft 435 kts 14°
2026-05-05 21:27 50.66215 -122.38744 30051 ft 437 kts 15°
2026-05-05 21:28 50.69030 -122.37078 30290 ft 439 kts 18°
2026-05-05 21:28 50.71849 -122.35142 30513 ft 442 kts 21°
2026-05-05 21:28 50.74589 -122.32969 30716 ft 444 kts 25°
2026-05-05 21:28 50.77301 -122.30605 30916 ft 446 kts 26°
2026-05-05 21:29 50.79986 -122.28215 31108 ft 447 kts 26°
2026-05-05 21:29 50.82693 -122.25800 31330 ft 447 kts 26°
2026-05-05 21:29 50.85376 -122.23400 31614 ft 446 kts 26°
2026-05-05 21:29 50.88099 -122.20967 31900 ft 445 kts 26°
2026-05-05 21:30 50.90782 -122.18573 32174 ft 444 kts 26°
2026-05-05 21:30 50.93452 -122.16188 32424 ft 443 kts 26°
2026-05-05 21:30 50.96133 -122.13792 32667 ft 442 kts 26°
2026-05-05 21:30 50.98807 -122.11399 32911 ft 441 kts 25°
2026-05-05 21:31 51.01481 -122.09003 33134 ft 441 kts 26°
2026-05-05 21:31 51.04121 -122.06638 33337 ft 441 kts 25°
2026-05-05 21:31 51.06791 -122.04242 33513 ft 441 kts 25°
2026-05-05 21:31 51.09482 -122.01824 33655 ft 442 kts 25°
2026-05-05 21:32 51.12150 -121.99428 33804 ft 443 kts 25°
2026-05-05 21:32 51.14835 -121.97021 33976 ft 443 kts 25°
2026-05-05 21:32 51.17512 -121.94617 34149 ft 443 kts 25°
2026-05-05 21:32 51.20188 -121.92206 34327 ft 443 kts 25°
2026-05-05 21:33 51.22872 -121.89781 34535 ft 443 kts 25°
2026-05-05 21:33 51.25542 -121.87363 34722 ft 443 kts 25°
2026-05-05 21:33 51.28192 -121.84959 34902 ft 442 kts 25°
2026-05-05 21:33 51.30864 -121.82532 35028 ft 443 kts 25°
2026-05-05 21:34 51.36235 -121.77647 35025 ft 448 kts 25°
2026-05-05 21:34 51.41690 -121.72671 35031 ft 453 kts 25°
2026-05-05 21:35 51.47165 -121.67659 35031 ft 459 kts 25°
2026-05-05 21:35 51.52738 -121.62542 35027 ft 461 kts 25°
2026-05-05 21:36 51.58295 -121.57423 35023 ft 460 kts 25°
2026-05-05 21:36 51.63818 -121.52321 35023 ft 460 kts 25°
2026-05-05 21:37 51.69353 -121.47198 35024 ft 460 kts 25°
2026-05-05 21:37 51.74880 -121.42064 35022 ft 459 kts 25°
2026-05-05 21:38 51.80375 -121.36947 35019 ft 458 kts 25°
2026-05-05 21:38 51.85854 -121.31816 35015 ft 459 kts 26°
2026-05-05 21:39 51.91382 -121.26610 35015 ft 459 kts 26°
2026-05-05 21:39 51.96904 -121.21409 35013 ft 458 kts 26°
2026-05-05 21:40 52.02377 -121.16248 35018 ft 458 kts 25°
2026-05-05 21:40 52.07900 -121.11029 35020 ft 458 kts 25°
2026-05-05 21:41 52.13393 -121.05832 35027 ft 457 kts 25°
2026-05-05 21:41 52.18872 -121.00652 35024 ft 458 kts 25°
2026-05-05 21:42 52.24365 -120.95428 35024 ft 457 kts 25°
2026-05-05 21:42 52.29808 -120.90231 35029 ft 456 kts 25°
2026-05-05 21:43 52.35282 -120.84988 35024 ft 455 kts 25°
2026-05-05 21:43 52.40762 -120.79722 35030 ft 456 kts 25°
2026-05-05 21:44 52.46189 -120.74492 35024 ft 456 kts 25°
2026-05-05 21:44 52.51662 -120.69199 35031 ft 454 kts 25°
2026-05-05 21:45 52.57097 -120.63931 35050 ft 455 kts 25°
2026-05-05 21:45 52.62542 -120.58637 35065 ft 455 kts 25°
2026-05-05 21:46 52.67973 -120.53338 35069 ft 453 kts 25°
2026-05-05 21:46 52.73388 -120.48040 35073 ft 454 kts 25°
2026-05-05 21:47 52.78783 -120.42748 35070 ft 454 kts 25°
2026-05-05 21:47 52.84178 -120.37441 35076 ft 453 kts 25°
2026-05-05 21:48 52.89599 -120.32079 35074 ft 454 kts 25°
2026-05-05 21:48 52.94987 -120.26720 35074 ft 454 kts 26°
2026-05-05 21:49 53.00390 -120.21346 35082 ft 454 kts 26°
2026-05-05 21:49 53.05783 -120.15972 35084 ft 452 kts 25°
2026-05-05 21:50 53.11178 -120.10586 35089 ft 453 kts 25°
2026-05-05 21:50 53.16594 -120.05189 35091 ft 453 kts 25°
2026-05-05 21:51 53.21971 -119.99804 35087 ft 452 kts 25°
2026-05-05 21:51 53.27345 -119.94395 35092 ft 451 kts 25°
2026-05-05 21:52 53.35406 -119.86250 35087 ft 452 kts 25°
2026-05-05 21:53 53.40783 -119.80793 35084 ft 452 kts 25°
2026-05-05 21:53 53.46118 -119.75363 35079 ft 452 kts 25°
2026-05-05 21:54 53.51464 -119.69908 35083 ft 451 kts 25°
2026-05-05 21:54 53.56811 -119.64431 35080 ft 451 kts 25°
2026-05-05 21:55 53.62163 -119.58931 35074 ft 451 kts 25°
2026-05-05 21:55 53.67606 -119.53894 35066 ft 447 kts 19°
2026-05-05 21:56 53.73278 -119.49828 35065 ft 442 kts 14°
2026-05-05 21:56 53.79113 -119.46772 35064 ft 437 kts
2026-05-05 21:57 53.85046 -119.44657 35062 ft 436 kts
2026-05-05 21:57 53.90996 -119.42829 35058 ft 435 kts
2026-05-05 21:58 53.96912 -119.41022 35059 ft 435 kts
2026-05-05 21:58 54.02852 -119.39202 35054 ft 435 kts
2026-05-05 21:59 54.08826 -119.37363 35055 ft 436 kts
2026-05-05 21:59 54.14796 -119.35525 35046 ft 435 kts
2026-05-05 22:00 54.20713 -119.33681 35041 ft 436 kts
2026-05-05 22:00 54.26659 -119.31807 35038 ft 436 kts
2026-05-05 22:01 54.32617 -119.29938 35044 ft 436 kts
2026-05-05 22:01 54.38596 -119.28065 35038 ft 437 kts
2026-05-05 22:02 54.44525 -119.26206 35033 ft 436 kts
2026-05-05 22:02 54.50483 -119.24335 35034 ft 436 kts
2026-05-05 22:03 54.56431 -119.22462 35033 ft 436 kts
2026-05-05 22:03 54.62367 -119.20587 35027 ft 436 kts
2026-05-05 22:04 54.68359 -119.18685 35029 ft 436 kts
2026-05-05 22:04 54.74303 -119.16795 35023 ft 436 kts
2026-05-05 22:05 54.80235 -119.14906 35025 ft 436 kts
2026-05-05 22:05 54.86191 -119.13005 35016 ft 437 kts
2026-05-05 22:06 54.92160 -119.11088 35015 ft 437 kts
2026-05-05 22:06 54.98101 -119.09183 35018 ft 436 kts
2026-05-05 22:07 55.04077 -119.07252 35031 ft 436 kts
2026-05-05 22:07 55.09967 -119.05022 35032 ft 440 kts 11°
2026-05-05 22:08 55.15762 -119.01419 35050 ft 446 kts 18°
2026-05-05 22:08 55.21314 -118.96390 35050 ft 453 kts 25°
2026-05-05 22:09 55.26476 -118.90003 35055 ft 460 kts 31°
2026-05-05 22:09 55.31444 -118.82951 35053 ft 460 kts 32°
2026-05-05 22:10 55.36391 -118.75839 35053 ft 460 kts 32°
2026-05-05 22:10 55.41285 -118.68784 35040 ft 459 kts 32°
2026-05-05 22:11 55.46230 -118.61644 35031 ft 459 kts 32°
2026-05-05 22:11 55.51176 -118.54481 35025 ft 459 kts 32°
2026-05-05 22:12 55.56076 -118.47359 35029 ft 458 kts 31°
2026-05-05 22:12 55.60968 -118.40225 35034 ft 459 kts 31°
2026-05-05 22:13 55.65881 -118.33034 35034 ft 459 kts 32°
2026-05-05 22:13 55.70761 -118.25835 35032 ft 458 kts 32°
2026-05-05 22:14 55.75630 -118.18641 35034 ft 458 kts 32°
2026-05-05 22:14 55.80530 -118.11398 35034 ft 457 kts 32°
2026-05-05 22:15 55.85405 -118.04170 35031 ft 457 kts 32°
2026-05-05 22:15 55.90247 -117.96962 35035 ft 457 kts 32°
2026-05-05 22:16 55.95118 -117.89693 35034 ft 456 kts 32°
2026-05-05 22:16 55.99960 -117.82442 35043 ft 457 kts 32°
2026-05-05 22:17 56.04799 -117.75171 35037 ft 457 kts 32°
2026-05-05 22:17 56.09669 -117.67831 35049 ft 456 kts 32°
2026-05-05 22:18 56.14489 -117.60568 35063 ft 454 kts 32°
2026-05-05 22:18 56.19299 -117.53303 35076 ft 454 kts 31°
2026-05-05 22:19 56.24286 -117.46577 35088 ft 450 kts 27°
2026-05-05 22:19 56.29366 -117.40112 35080 ft 449 kts 27°
2026-05-05 22:20 56.34474 -117.33600 35079 ft 450 kts 28°
2026-05-05 22:20 56.39556 -117.27065 35067 ft 449 kts 28°
2026-05-05 22:21 56.44614 -117.20543 35053 ft 450 kts 28°
2026-05-05 22:21 56.49696 -117.13982 35055 ft 450 kts 28°
2026-05-05 22:22 56.54748 -117.07439 35052 ft 449 kts 28°
2026-05-05 22:22 56.59806 -117.00871 35049 ft 449 kts 27°
2026-05-05 22:23 56.64896 -116.94237 35072 ft 449 kts 28°
2026-05-05 22:23 56.69948 -116.87637 35069 ft 449 kts 27°
2026-05-05 22:24 56.74990 -116.81023 35075 ft 450 kts 27°
2026-05-05 22:24 56.80051 -116.74362 35078 ft 448 kts 27°
2026-05-05 22:25 56.85106 -116.67685 35073 ft 449 kts 27°
2026-05-05 22:25 56.90120 -116.61043 35067 ft 449 kts 27°
2026-05-05 22:26 56.95148 -116.54358 34944 ft 448 kts 27°
2026-05-05 22:26 57.00155 -116.47680 35037 ft 449 kts 27°
2026-05-05 22:27 57.05190 -116.40941 35058 ft 449 kts 27°
2026-05-05 22:27 57.10222 -116.34180 35070 ft 448 kts 28°
2026-05-05 22:28 57.15247 -116.27406 35068 ft 449 kts 28°
2026-05-05 22:28 57.20249 -116.20642 35068 ft 450 kts 28°
2026-05-05 22:29 57.25260 -116.13839 35070 ft 449 kts 28°
2026-05-05 22:29 57.30349 -116.06910 35072 ft 449 kts 28°
2026-05-05 22:30 57.35368 -116.00047 35068 ft 449 kts 28°
2026-05-05 22:30 57.40384 -115.93172 35062 ft 448 kts 28°
2026-05-05 22:31 57.45379 -115.86298 35065 ft 448 kts 28°
2026-05-05 22:31 57.50343 -115.79440 35062 ft 447 kts 28°
2026-05-05 22:32 57.55300 -115.72569 35060 ft 446 kts 28°
2026-05-05 22:32 57.60255 -115.65683 35065 ft 446 kts 28°
2026-05-05 22:33 57.65194 -115.58787 35066 ft 446 kts 28°
2026-05-05 22:33 57.70173 -115.51815 35062 ft 446 kts 28°
2026-05-05 22:34 57.75104 -115.44886 35069 ft 444 kts 28°
2026-05-05 22:34 57.80003 -115.37976 35072 ft 445 kts 28°
2026-05-05 22:35 57.84940 -115.30978 35083 ft 445 kts 29°
2026-05-05 22:35 57.89862 -115.23956 35076 ft 446 kts 29°
2026-05-05 22:36 57.94767 -115.16948 35088 ft 444 kts 29°
2026-05-05 22:36 57.99632 -115.09987 35091 ft 444 kts 29°
2026-05-05 22:37 58.04539 -115.02940 35092 ft 445 kts 29°
2026-05-05 22:37 58.09431 -114.95892 35092 ft 444 kts 29°
2026-05-05 22:38 58.14331 -114.88833 35091 ft 443 kts 29°
2026-05-05 22:38 58.19248 -114.81730 35100 ft 443 kts 29°
2026-05-05 22:39 58.24184 -114.74555 35103 ft 442 kts 29°
2026-05-05 22:39 58.29079 -114.67402 35110 ft 442 kts 28°
2026-05-05 22:40 58.33991 -114.60203 35111 ft 442 kts 28°
2026-05-05 22:40 58.38902 -114.52977 35119 ft 442 kts 28°
2026-05-05 22:41 58.43808 -114.45731 35122 ft 442 kts 29°
2026-05-05 22:41 58.48679 -114.38510 35126 ft 441 kts 28°
2026-05-05 22:42 58.53547 -114.31258 35137 ft 441 kts 30°
2026-05-05 22:42 58.58392 -114.23994 35132 ft 440 kts 29°
2026-05-05 22:43 58.63234 -114.16725 35139 ft 441 kts 29°
2026-05-05 22:43 58.68071 -114.09445 35140 ft 440 kts 30°
2026-05-05 22:44 58.72887 -114.02171 35147 ft 441 kts 30°
2026-05-05 22:44 58.77738 -113.94821 35153 ft 439 kts 30°
2026-05-05 22:45 58.82528 -113.87541 35144 ft 439 kts 30°
2026-05-05 22:45 58.87346 -113.80190 35150 ft 441 kts 29°
2026-05-05 22:46 58.92157 -113.72825 35151 ft 440 kts 29°
2026-05-05 22:46 58.96939 -113.65471 35155 ft 439 kts 29°
2026-05-05 22:47 59.01700 -113.58128 35152 ft 438 kts 29°
2026-05-05 22:47 59.06477 -113.50736 35156 ft 439 kts 30°
2026-05-05 22:48 59.11254 -113.43321 35157 ft 439 kts 30°
2026-05-05 22:48 59.16034 -113.35895 35151 ft 440 kts 29°
2026-05-05 22:49 59.20831 -113.28388 35146 ft 439 kts 30°
2026-05-05 22:49 59.25573 -113.20920 35146 ft 440 kts 30°
2026-05-05 22:50 59.30353 -113.13374 35142 ft 440 kts 30°
2026-05-05 22:50 59.35099 -113.05853 35142 ft 440 kts 30°
2026-05-05 22:51 59.39896 -112.98233 35145 ft 440 kts 30°
2026-05-05 22:51 59.44655 -112.90645 35147 ft 440 kts 30°
2026-05-05 22:52 59.49381 -112.83081 35149 ft 440 kts 30°
2026-05-05 22:52 59.54132 -112.75447 35150 ft 439 kts 30°
2026-05-05 22:53 59.58873 -112.67801 35153 ft 439 kts 30°
2026-05-05 22:53 59.63635 -112.60096 35157 ft 440 kts 30°
2026-05-05 22:54 59.68337 -112.52458 35160 ft 439 kts 30°
2026-05-05 22:54 59.73064 -112.44746 35165 ft 440 kts 30°
2026-05-05 22:55 59.77756 -112.37066 35168 ft 439 kts 30°
2026-05-05 22:55 59.82437 -112.29355 35179 ft 440 kts 31°
2026-05-05 22:56 59.87132 -112.21594 35181 ft 440 kts 31°
2026-05-05 22:56 59.91795 -112.13869 35196 ft 440 kts 31°
2026-05-05 22:57 59.96478 -112.06088 35210 ft 439 kts 31°
2026-05-05 22:57 60.01184 -111.98201 35209 ft 441 kts 32°
2026-05-05 22:58 60.05696 -111.89768 35203 ft 446 kts 35°
2026-05-05 22:58 60.10119 -111.81197 35208 ft 446 kts 35°
2026-05-05 22:59 60.14582 -111.72566 35195 ft 445 kts 34°
2026-05-05 22:59 60.18997 -111.64001 35198 ft 445 kts 35°
2026-05-05 23:00 60.25668 -111.50963 35180 ft 446 kts 35°
2026-05-05 23:00 60.30060 -111.42330 35182 ft 444 kts 35°
2026-05-05 23:01 60.34490 -111.33583 35175 ft 446 kts 36°
2026-05-05 23:01 60.38912 -111.24795 35184 ft 448 kts 36°
2026-05-05 23:02 60.43310 -111.16017 35181 ft 445 kts 36°
2026-05-05 23:02 60.47693 -111.07252 35183 ft 444 kts 36°
2026-05-05 23:03 60.52071 -110.98467 35180 ft 446 kts 36°
2026-05-05 23:03 60.56441 -110.89671 35184 ft 445 kts 36°
2026-05-05 23:04 60.60842 -110.80769 35175 ft 445 kts 36°
2026-05-05 23:04 60.65202 -110.71915 35174 ft 445 kts 36°
2026-05-05 23:05 60.69559 -110.63032 35179 ft 445 kts 36°
2026-05-05 23:05 60.73892 -110.54168 35167 ft 444 kts 36°
2026-05-05 23:06 60.78238 -110.45231 35181 ft 444 kts 36°
2026-05-05 23:06 60.82600 -110.36231 35164 ft 445 kts 36°
2026-05-05 23:07 60.86920 -110.27258 35173 ft 445 kts 37°
2026-05-05 23:07 60.91231 -110.18270 35168 ft 445 kts 37°
2026-05-05 23:08 60.95569 -110.09206 35185 ft 447 kts 37°
2026-05-05 23:08 60.99900 -110.00118 35175 ft 444 kts 37°
2026-05-05 23:09 61.04288 -109.91186 35193 ft 444 kts 36°
2026-05-05 23:09 61.08703 -109.82296 35192 ft 446 kts 37°
2026-05-05 23:10 61.13138 -109.73340 35186 ft 444 kts 36°
2026-05-05 23:10 61.17546 -109.64411 35181 ft 444 kts 37°
2026-05-05 23:11 61.21957 -109.55415 35171 ft 445 kts 36°
2026-05-05 23:11 61.26365 -109.46382 35176 ft 446 kts 37°
2026-05-05 23:12 61.30761 -109.37315 35178 ft 447 kts 37°
2026-05-05 23:12 61.35144 -109.28219 35337 ft 448 kts 38°
2026-05-05 23:13 61.39532 -109.19061 35199 ft 446 kts 38°
2026-05-05 23:13 61.43889 -109.09947 35188 ft 445 kts 38°
2026-05-05 23:14 61.48255 -109.00777 35175 ft 446 kts 38°
2026-05-05 23:14 61.52643 -108.91537 35163 ft 447 kts 38°
2026-05-05 23:15 61.57014 -108.82290 35168 ft 449 kts 38°
2026-05-05 23:15 61.61386 -108.73003 35164 ft 451 kts 38°
2026-05-05 23:16 61.65758 -108.63673 35164 ft 450 kts 38°
2026-05-05 23:16 61.70158 -108.54252 35163 ft 451 kts 38°
2026-05-05 23:17 61.74528 -108.44846 35159 ft 453 kts 38°
2026-05-05 23:17 61.78920 -108.35354 35153 ft 453 kts 38°
2026-05-05 23:18 61.83311 -108.25793 35144 ft 454 kts 39°
2026-05-05 23:18 61.87680 -108.16238 35153 ft 455 kts 39°
2026-05-05 23:19 61.92072 -108.06612 35162 ft 456 kts 39°
2026-05-05 23:19 61.96480 -107.96913 35157 ft 456 kts 40°
2026-05-05 23:20 62.00877 -107.87194 35161 ft 457 kts 40°
2026-05-05 23:20 62.05257 -107.77480 35178 ft 459 kts 40°
2026-05-05 23:21 62.09660 -107.67661 35166 ft 460 kts 40°
2026-05-05 23:21 62.14094 -107.57780 35175 ft 460 kts 40°
2026-05-05 23:22 62.18502 -107.47914 35173 ft 462 kts 40°
2026-05-05 23:22 62.22910 -107.37981 35177 ft 463 kts 40°
2026-05-05 23:23 62.27340 -107.27911 35175 ft 465 kts 41°
2026-05-05 23:23 62.31749 -107.17835 35182 ft 466 kts 41°
2026-05-05 23:24 62.36175 -107.07681 35184 ft 467 kts 41°
2026-05-05 23:24 62.40597 -106.97498 35188 ft 466 kts 42°
2026-05-05 23:25 62.44986 -106.87347 35187 ft 468 kts 42°
2026-05-05 23:25 62.49432 -106.77019 35192 ft 468 kts 42°
2026-05-05 23:26 62.53848 -106.66711 35191 ft 468 kts 42°
2026-05-05 23:26 62.58250 -106.56387 35195 ft 469 kts 42°
2026-05-05 23:27 62.62643 -106.46040 35191 ft 469 kts 42°
2026-05-05 23:27 62.67050 -106.35607 35198 ft 470 kts 42°
2026-05-05 23:28 62.71468 -106.25075 35196 ft 471 kts 43°
2026-05-05 23:28 62.75865 -106.14539 35200 ft 472 kts 43°
2026-05-05 23:29 62.80251 -106.04000 35200 ft 472 kts 44°
2026-05-05 23:29 62.84671 -105.93334 35190 ft 472 kts 44°
2026-05-05 23:30 62.89057 -105.82694 35191 ft 472 kts 44°
2026-05-05 23:30 62.93441 -105.72018 35191 ft 473 kts 44°
2026-05-05 23:31 62.97835 -105.61262 35198 ft 473 kts 44°
2026-05-05 23:31 63.02189 -105.50553 35206 ft 474 kts 44°
2026-05-05 23:32 63.06584 -105.39690 35209 ft 475 kts 44°
2026-05-05 23:32 63.10948 -105.28840 35214 ft 476 kts 45°
2026-05-05 23:33 63.15346 -105.17901 35213 ft 476 kts 45°
2026-05-05 23:33 63.19736 -105.06921 35220 ft 476 kts 45°
2026-05-05 23:34 63.24090 -104.95959 35218 ft 476 kts 45°
2026-05-05 23:34 63.28466 -104.84875 35223 ft 476 kts 45°
2026-05-05 23:35 63.32827 -104.73769 35228 ft 477 kts 45°
2026-05-05 23:35 63.37199 -104.62577 35232 ft 477 kts 45°
2026-05-05 23:36 63.41550 -104.51387 35232 ft 477 kts 45°
2026-05-05 23:36 63.45888 -104.40170 35231 ft 478 kts 45°
2026-05-05 23:37 63.50241 -104.28851 35227 ft 479 kts 46°
2026-05-05 23:37 63.54562 -104.17532 35216 ft 479 kts 46°
2026-05-05 23:38 63.58897 -104.06139 35218 ft 479 kts 46°
2026-05-05 23:38 63.63180 -103.94830 35216 ft 479 kts 46°
2026-05-05 23:39 63.67489 -103.83406 35212 ft 479 kts 47°
2026-05-05 23:39 63.71779 -103.71970 35209 ft 479 kts 47°
2026-05-05 23:40 63.76059 -103.60501 35205 ft 480 kts 47°
2026-05-05 23:40 63.80329 -103.48999 35210 ft 480 kts 47°
2026-05-05 23:41 63.84615 -103.37393 35216 ft 480 kts 47°
2026-05-05 23:41 63.88876 -103.25773 35216 ft 480 kts 48°
2026-05-05 23:42 63.93124 -103.14130 35218 ft 480 kts 48°
2026-05-05 23:42 63.97367 -103.02450 35229 ft 481 kts 48°
2026-05-05 23:43 64.01602 -102.90736 35247 ft 482 kts 48°
2026-05-05 23:43 64.05860 -102.78902 35255 ft 482 kts 48°
2026-05-05 23:44 64.10065 -102.67154 35260 ft 481 kts 48°
2026-05-05 23:44 64.14303 -102.55322 35262 ft 481 kts 48°
2026-05-05 23:45 64.18514 -102.43498 35262 ft 481 kts 48°
2026-05-05 23:45 64.22710 -102.31608 35263 ft 481 kts 49°
2026-05-05 23:46 64.26894 -102.19637 35263 ft 481 kts 49°
2026-05-05 23:46 64.31048 -102.07703 35263 ft 481 kts 49°
2026-05-05 23:47 64.35229 -101.95632 35266 ft 482 kts 49°
2026-05-05 23:47 64.39391 -101.83562 35264 ft 483 kts 49°
2026-05-05 23:48 64.43563 -101.71396 35263 ft 482 kts 49°
2026-05-05 23:48 64.47679 -101.59326 35264 ft 482 kts 49°
2026-05-05 23:49 64.51795 -101.47189 35268 ft 481 kts 50°
2026-05-05 23:49 64.55926 -101.34943 35262 ft 481 kts 50°
2026-05-05 23:50 64.60028 -101.22691 35254 ft 482 kts 51°
2026-05-05 23:50 64.64110 -101.10438 35252 ft 482 kts 51°
2026-05-05 23:51 64.68201 -100.98099 35253 ft 482 kts 51°
2026-05-05 23:51 64.72297 -100.85686 35252 ft 482 kts 50°
2026-05-05 23:52 64.76355 -100.73320 35249 ft 482 kts 50°
2026-05-05 23:52 64.80421 -100.60866 35242 ft 482 kts 51°
2026-05-05 23:53 64.84478 -100.48372 35354 ft 483 kts 51°
2026-05-05 23:53 64.86512 -100.42081 35511 ft 483 kts 51°
2026-05-05 23:53 64.88546 -100.35770 35658 ft 482 kts 51°
2026-05-05 23:54 64.90571 -100.29464 35776 ft 483 kts 52°
2026-05-05 23:54 64.92562 -100.23238 35877 ft 483 kts 52°
2026-05-05 23:54 64.94602 -100.16848 35984 ft 483 kts 52°
2026-05-05 23:54 64.96626 -100.10490 36097 ft 483 kts 52°
2026-05-05 23:55 64.98598 -100.04224 36200 ft 484 kts 53°
2026-05-05 23:55 65.00499 -99.97599 36285 ft 485 kts 56°
2026-05-05 23:55 65.03989 -99.83907 36463 ft 486 kts 58°
2026-05-05 23:56 65.07422 -99.70013 36655 ft 486 kts 58°
2026-05-05 23:56 65.10832 -99.56153 36830 ft 487 kts 58°
2026-05-05 23:57 65.14262 -99.42271 37008 ft 487 kts 58°
2026-05-05 23:57 65.17660 -99.28391 37177 ft 486 kts 59°
2026-05-05 23:58 65.21041 -99.14423 37216 ft 488 kts 59°
2026-05-05 23:58 65.24435 -99.00309 37217 ft 488 kts 59°
2026-05-05 23:59 65.27786 -98.86283 37222 ft 488 kts 59°
2026-05-05 23:59 65.31122 -98.72228 37214 ft 488 kts 59°
2026-05-06 00:00 65.34449 -98.58125 37215 ft 488 kts 59°
2026-05-06 00:00 65.37770 -98.43955 37217 ft 488 kts 59°
2026-05-06 00:01 65.41084 -98.29714 37210 ft 489 kts 60°
2026-05-06 00:01 65.44369 -98.15483 37208 ft 490 kts 60°
2026-05-06 00:02 65.47643 -98.01218 37208 ft 490 kts 60°
2026-05-06 00:02 65.50917 -97.86868 37211 ft 490 kts 60°
2026-05-06 00:03 65.54174 -97.72511 37215 ft 490 kts 60°
2026-05-06 00:03 65.57410 -97.58146 37215 ft 491 kts 60°
2026-05-06 00:04 65.60654 -97.43647 37211 ft 491 kts 60°
2026-05-06 00:04 65.63869 -97.29174 37214 ft 492 kts 61°
2026-05-06 00:05 65.68676 -97.07314 37211 ft 492 kts 61°
2026-05-06 00:06 65.71871 -96.92680 37215 ft 492 kts 61°